Location: Trebic
(49.2170°N, 15.8830°E)
Time: 21:00:56
(UTC+01:00)

Transit 4A - Visible Passes

Search period start: 29 October 2020 00:00
Search period end: 08 November 2020 00:00
Orbit: 862 x 982 km, 66.8° (Epoch: 29 October)

Date Brightness Start Highest point End Pass type
(mag) Time Alt. Az. Time Alt. Az. Time Alt. Az.
29 Oct 10.0 18:19:35 10° WNW 18:23:50 18° NNW 18:28:08 10° NNE visible
29 Oct 9.9 20:08:40 10° NNW 20:12:32 18° N 20:12:32 18° N visible
29 Oct 10.6 21:55:18 10° NNW 21:56:02 13° NNW 21:56:02 13° NNW visible
30 Oct 10.0 18:29:44 10° NW 18:33:44 17° N 18:37:45 10° NNE visible
30 Oct 9.9 20:18:11 10° NNW 20:21:30 19° N 20:21:30 19° N visible
30 Oct 10.7 22:04:36 10° NNW 22:05:00 12° NNW 22:05:00 12° NNW visible
31 Oct 10.0 18:39:48 10° NW 18:43:39 16° N 18:46:59 11° NNE visible
31 Oct 9.9 20:27:37 10° NNW 20:30:29 19° N 20:30:29 19° N visible
31 Oct 10.8 22:13:54 10° NNW 22:13:59 10° NNW 22:13:59 10° NNW visible
01 Nov 9.8 16:59:47 10° WNW 17:04:40 22° NNW 17:09:35 10° NNE visible
01 Nov 9.9 18:49:43 10° NW 18:53:35 16° N 18:55:58 13° NNE visible
01 Nov 10.0 20:36:58 10° NNW 20:39:28 20° N 20:39:28 20° N visible
02 Nov 9.9 17:10:00 10° WNW 17:14:29 19° NNW 17:19:00 10° NNE visible
02 Nov 9.8 18:59:28 10° NNW 19:03:30 17° N 19:04:59 16° NNE visible
02 Nov 10.0 20:46:18 10° NNW 20:48:29 20° NNW 20:48:29 20° NNW visible
03 Nov 9.9 17:20:12 10° NW 17:24:21 18° NNW 17:28:32 10° NNE visible
03 Nov 9.7 19:09:04 10° NNW 19:13:23 18° NNE 19:14:00 18° NNE visible
03 Nov 10.1 20:55:36 10° NNW 20:57:30 19° NNW 20:57:30 19° NNW visible
04 Nov 9.9 17:30:20 10° NW 17:34:15 16° N 17:38:12 10° NNE visible
04 Nov 9.6 19:18:33 10° NNW 19:23:01 20° NNE 19:23:01 20° NNE visible
04 Nov 10.2 21:04:55 10° NNW 21:06:32 18° NNW 21:06:32 18° NNW visible
05 Nov 9.9 17:40:21 10° NW 17:44:11 16° N 17:48:01 10° NE visible
05 Nov 9.5 19:27:57 10° NNW 19:32:04 23° NNE 19:32:04 23° NNE visible
05 Nov 10.3 21:14:13 10° NNW 21:15:35 17° NNW 21:15:35 17° NNW visible
06 Nov 9.8 17:50:12 10° NNW 17:54:06 16° N 17:57:38 11° NE visible
06 Nov 9.4 19:37:18 10° NNW 19:41:08 25° N 19:41:08 25° N visible
06 Nov 10.4 21:23:35 10° NW 21:24:39 15° NW 21:24:39 15° NW visible
07 Nov 9.7 17:59:54 10° NNW 18:04:01 17° N 18:06:43 14° NE visible
07 Nov 9.4 19:46:37 10° NNW 19:50:14 27° N 19:50:14 27° N visible
07 Nov 10.6 21:32:59 10° NW 21:33:44 14° NW 21:33:44 14° NW visible
